This demonstration page uses our WeatherBlox Daily Observations layout. Learn more.

Left ArrowRight Arrow

39.51506, -84.39828

Hourly Observations for July 6, 2021

Temp ( °F °C ) Dew Point ( °F °C ) Humidity (%) Winds ( mph kmh ) Pressure ( in mb ) Visibility ( mi km ) Precip ( " mm )
12:15 am 00:15 Hazy 72 22 N/A N/A N N/A 30.06 1018 7 11 N/A
12:35 am 00:35 Hazy 70 21 N/A N/A N N/A 30.06 1018 5 8 N/A
12:55 am 00:55 Hazy 72 22 N/A N/A N N/A 30.07 1018 7 11 N/A
1:15 am 01:15 Hazy 70 21 N/A N/A N N/A 30.06 1018 5 8 N/A
1:35 am 01:35 Hazy 72 22 N/A N/A N N/A 30.06 1018 7 11 N/A
1:55 am 01:55 Clear with Mist and Fog 70 21 N/A N/A N N/A 30.06 1018 4 6 N/A
2:15 am 02:15 Hazy 70 21 N/A N/A N N/A 30.06 1018 5 8 N/A
2:35 am 02:35 Hazy 70 21 N/A N/A W 3 6 30.06 1018 7 11 N/A
2:55 am 02:55 Clear with Mist and Fog 70 21 N/A N/A N N/A 30.06 1018 4 6 N/A
3:15 am 03:15 Clear with Mist and Fog 70 21 N/A N/A N N/A 30.06 1018 3 4 N/A
3:35 am 03:35 Clear with Mist and Fog 68 20 N/A N/A N N/A 30.06 1018 3 4 N/A
3:55 am 03:55 Clear with Mist and Fog 68 20 N/A N/A N N/A 30.06 1018 3 5 N/A
4:15 am 04:15 Mostly Cloudy with Fog 68 20 N/A N/A N N/A 30.06 1018 1 1 N/A
4:35 am 04:35 Clear with Mist and Fog 68 20 N/A N/A N N/A 30.07 1018 3 5 N/A
4:55 am 04:55 Mostly Cloudy with Mist and Fog 68 20 N/A N/A N N/A 30.07 1018 2 3 N/A
5:15 am 05:15 Clear with Mist and Fog 68 20 N/A N/A N N/A 30.08 1019 4 6 N/A
5:35 am 05:35 Hazy 68 20 N/A N/A N N/A 30.08 1019 5 8 N/A
5:55 am 05:55 Hazy 68 20 N/A N/A N N/A 30.08 1019 4 6 N/A
6:15 am 06:15 Mostly Cloudy with Fog 66 19 N/A N/A N N/A 30.08 1019 1 1 N/A
6:35 am 06:35 Mostly Cloudy with Fog 66 19 N/A N/A W 3 6 30.09 1019 1 1 N/A
6:55 am 06:55 Mostly Cloudy with Mist and Fog 68 20 N/A N/A N N/A 30.08 1019 1 2 N/A
7:15 am 07:15 Sunny with Mist and Fog 68 20 N/A N/A WSW 3 6 30.09 1019 2 3 N/A
7:35 am 07:35 Sunny with Mist and Fog 70 21 N/A N/A N N/A 30.10 1019 3 5 N/A
7:55 am 07:55 Hazy 72 22 N/A N/A SW 3 6 30.10 1019 4 6 N/A
8:15 am 08:15 Hazy 73 23 N/A N/A SW 3 6 30.11 1020 5 8 N/A
8:35 am 08:35 Sunny with Mist and Fog 76 24.2 74 23.2 94 94 N N/A 30.10 1019 5 8 N/A
8:55 am 08:55 Sunny 77 25 74 23.3 90 90 N N/A 30.10 1019 7 11 N/A
9:15 am 09:15 Sunny 79 26.2 74 23.5 85 85 N N/A 30.10 1019 10 16 N/A
9:35 am 09:35 Sunny 80 26.9 74 23.5 82 82 N N/A 30.10 1019 10 16 N/A
9:55 am 09:55 Sunny 82 27.7 74 23.1 76 76 WNW 6 9 30.10 1019 10 16 N/A
10:15 am 10:15 Sunny 83 28.3 73 22.9 73 73 W 6 9 30.09 1019 10 16 N/A
10:35 am 10:35 Sunny 83 28.6 72 22.3 69 69 W 8 13 30.07 1018 10 16 N/A
10:55 am 10:55 Sunny 85 29.3 73 22.8 68 68 W 7 11 30.07 1018 10 16 N/A
11:15 am 11:15 Sunny 85 29.3 73 22.5 67 67 W 3 6 30.07 1018 10 16 N/A
11:35 am 11:35 Sunny 86 29.8 73 22.7 66 66 SW 7 11 30.07 1018 10 16 N/A
11:55 am 11:55 Sunny 86 30 72 22.1 63 63 SW 5 7 30.06 1018 10 16 N/A
12:15 pm 12:15 Partly Cloudy 87 30.5 71 21.6 59 59 WSW 10 17 30.06 1018 10 16 N/A
12:35 pm 12:35 Sunny 88 30.9 72 22.4 61 61 WSW 9 15 30.06 1018 10 16 N/A
12:55 pm 12:55 Sunny 88 30.9 70 21.2 56 56 WSW 3 6 30.06 1018 10 16 N/A
1:15 pm 13:15 Sunny 88 31.2 71 21.7 57 57 WSW 7 11 30.06 1018 10 16 N/A
1:35 pm 13:35 Partly Cloudy 88 31.1 70 21.2 56 56 WNW 7 11 30.06 1018 10 16 N/A
1:55 pm 13:55 Partly Cloudy 88 31.3 69 20.7 53 53 WNW 9 15 30.05 1018 10 16 N/A
2:15 pm 14:15 Mostly Cloudy 89 31.5 72 22.4 58 58 NW 6 9 30.05 1018 10 16 N/A
2:35 pm 14:35 Mostly Cloudy 88 31.3 70 21.2 55 55 NNW 3 6 30.05 1018 10 16 N/A
2:55 pm 14:55 Sunny 89 31.8 71 21.6 55 55 W 7 11 30.04 1017 10 16 N/A
3:15 pm 15:15 Sunny 90 32 69 20.7 51 51 S 6 9 30.03 1017 10 16 N/A
3:35 pm 15:35 Partly Cloudy 90 32 71 21.4 53 53 W 6 9 30.03 1017 10 16 N/A
3:55 pm 15:55 Partly Cloudy 90 32.3 71 21.6 53 53 NW 6 9 30.02 1016 10 16 N/A
4:15 pm 16:15 Partly Cloudy 90 32.2 71 21.6 54 54 W 6 9 30.02 1016 10 16 N/A
4:35 pm 16:35 Sunny 90 32.3 71 21.5 53 53 W 7 11 30.02 1016 10 16 N/A
4:55 pm 16:55 Sunny 90 32.1 70 21.2 53 53 W 6 9 30.01 1016 10 16 N/A
5:15 pm 17:15 Sunny 90 32.4 71 21.9 54 54 W 8 13 30.00 1016 10 16 N/A
5:35 pm 17:35 Sunny 90 32 71 21.5 54 54 W 7 11 30.00 1016 10 16 N/A
5:55 pm 17:55 Sunny 88 31.3 71 21.8 57 57 W 8 13 29.99 1016 10 16 N/A
6:15 pm 18:15 Sunny 88 31 72 22.1 59 59 W 6 9 29.98 1015 10 16 N/A
6:35 pm 18:35 Sunny 89 31.4 72 22.1 58 58 NNW 7 11 29.98 1015 10 16 N/A
6:55 pm 18:55 Sunny 88 31.1 72 22.1 59 59 W 6 9 29.98 1015 10 16 N/A
7:15 pm 19:15 Sunny 88 30.9 71 21.9 59 59 WSW 6 9 29.99 1016 10 16 N/A
7:35 pm 19:35 Sunny 87 30.5 72 22.2 61 61 SW 7 11 29.99 1016 10 16 N/A
7:55 pm 19:55 Sunny 86 30 72 22.3 63 63 SW 6 9 29.98 1015 10 16 N/A
8:15 pm 20:15 Sunny with Nearby Thunderstorms 85 29.3 73 23 69 69 SW 5 7 29.99 1016 10 16 N/A
8:35 pm 20:35 Sunny 82 28 76 24.5 81 81 WSW 3 6 30.00 1016 10 16 N/A
8:55 pm 20:55 Sunny 81 27.3 75 24 82 82 NNW 3 6 29.98 1015 10 16 N/A
9:15 pm 21:15 Clear 78 25.7 75 24.1 91 91 N N/A 29.98 1015 10 16 N/A
9:35 pm 21:35 Clear 77 25 75 24.1 95 95 N 3 6 29.99 1016 7 11 N/A
10:00 pm 22:00 Clear 77 25.1 75 23.8 93 93 SSW 6 9 30.00 1016 10 16 N/A
10:15 pm 22:15 Clear 78 25.8 73 22.9 84 84 WSW 5 7 30.01 1016 10 16 N/A
10:35 pm 22:35 Clear 78 25.3 73 22.9 87 87 SW 7 11 30.02 1017 10 16 N/A
10:55 pm 22:55 Clear 76 24.6 73 22.6 89 89 SW 6 9 30.03 1017 10 16 N/A
11:15 pm 23:15 Clear 76 24.7 72 22.2 86 86 SW 5 7 30.03 1017 10 16 N/A
11:35 pm 23:35 Clear 76 24.6 71 21.9 85 85 S 5 7 30.02 1017 10 16 N/A

Powered by AerisWeather